Salamanca/Mataca, Spain

10:53 AM CET on February 24, 2017 (GMT +0100)
Matacan

Weather History for LESA - February, 2012

Change the Weather History Date:

Wednesday, February 8, 2012

  Actual Average Record
Temperature  
Mean Temperature 27 °F -  
Max Temperature 37 °F - - ()
Min Temperature 17 °F - - ()
Degree Days  
Heating Degree Days 38    
Moisture  
Dew Point 22 °F    
Average Humidity 76    
Maximum Humidity 100    
Minimum Humidity 45    
Precipitation  
Precipitation 0.00 in 0.04 in - ()
Sea Level Pressure  
Sea Level Pressure 30.31 in    
Wind  
Wind Speed 4 mph ()    
Max Wind Speed 15 mph    
Max Gust Speed -    
Visibility 6.7 miles    
Events Snow    
T = Trace of Precipitation, MM = Missing Value Source: Averaged Metar Reports

Daily Weather History Graph

Daily Weather History Graph

Search for Another Location

Airport or City:

Trip Planner

Search our weather history database for the weather conditions in past years. The results will help you decide how hot, cold, wet, or windy it might be!

Date:

Astronomy

Feb. 08, 2012 Rise Set
Actual Time 8:25 AM CET 6:47 PM CET
Civil Twilight 7:57 AM CET 7:15 PM CET
Nautical Twilight 7:24 AM CET 7:48 PM CET
Astronomical Twilight 6:52 AM CET 8:20 PM CET
Moon 7:51 PM CET (2/8) 8:20 AM CET (2/8)
Length of Visible Light 11h 18m
Length of Day
10h 21m
Full, 100% of the Moon is Illuminated
Feb 8
Full
Feb 14
Last Quarter
Feb 21
New
Mar 1
First Quarter
Mar 8
Full

Hourly Weather History & Observations

Time (CET) Temp. Windchill Dew Point Humidity Pressure Visibility Wind Dir Wind Speed Gust Speed Precip Events Conditions
12:00 AM 28.4 °F - 24.8 °F 86% 30.33 in - Variable 2.3 mph - N/A   Clear
1:00 AM 28 °F - 23 °F 74%  in 12 mi ENE 3.5 mph - -  
1:00 AM 26.6 °F - 23.0 °F 86% 30.33 in - Variable 2.3 mph - N/A   Clear
2:00 AM 26.6 °F - 21.2 °F 80% 30.33 in - Calm Calm - N/A   Clear
3:00 AM 24.8 °F - 21.2 °F 86% 30.33 in - Variable 2.3 mph - N/A   Clear
4:00 AM 23.0 °F - 21.2 °F 93% 30.33 in - Calm Calm - N/A   Clear
5:00 AM 23.0 °F - 19.4 °F 86% 30.33 in - Variable 1.2 mph - N/A   Clear
6:00 AM 21.2 °F - 19.4 °F 93% 30.33 in - Calm Calm - N/A   Clear
7:00 AM 22 °F - 18 °F 78%  in 9 mi Calm Calm - -  
7:00 AM 21.2 °F - 17.6 °F 86% 30.33 in - Calm Calm - N/A   Clear
7:30 AM 19.4 °F - 17.6 °F 93% 30.33 in - Calm Calm - N/A   Clear
8:00 AM 19.4 °F - 19.4 °F 100% 30.30 in - Calm Calm - N/A   Clear
8:30 AM 17.6 °F - 15.8 °F 93% 30.30 in - Calm Calm - N/A   Clear
9:00 AM 19.4 °F - 17.6 °F 93% 30.30 in - Calm Calm - N/A   Clear
9:30 AM 21.2 °F - 19.4 °F 93% 30.33 in - Calm Calm - N/A   Clear
10:00 AM 24.8 °F - 21.2 °F 86% 30.33 in 6.2 mi Calm Calm - N/A   Partly Cloudy
10:30 AM 28.4 °F - 23.0 °F 80% 30.33 in 6.2 mi Calm Calm - N/A   Partly Cloudy
11:00 AM 30.2 °F - 23.0 °F 75% 30.33 in 6.2 mi Variable 1.2 mph - N/A   Partly Cloudy
11:30 AM 32.0 °F - 23.0 °F 69% 30.33 in 6.2 mi Variable 2.3 mph - N/A   Partly Cloudy
12:00 PM 32.0 °F - 21.2 °F 64% 30.30 in 6.2 mi Variable 2.3 mph - N/A   Partly Cloudy
12:30 PM 33.8 °F 29.6 °F 21.2 °F 60% 30.30 in 6.2 mi North 4.6 mph - N/A   Scattered Clouds
1:00 PM 36 °F - 22 °F 45%  in 9 mi North 10.4 mph - -   Mostly Cloudy
1:00 PM 33.8 °F 25.8 °F 21.2 °F 60% 30.30 in 6.2 mi North 10.4 mph - N/A   Scattered Clouds
1:30 PM 33.8 °F 23.9 °F 19.4 °F 56% 30.30 in 6.2 mi North 15.0 mph - N/A   Scattered Clouds
2:00 PM 35.6 °F 28.0 °F 23.0 °F 60% 30.27 in 6.2 mi NE 10.4 mph - N/A   Scattered Clouds
2:30 PM 35.6 °F 27.1 °F 23.0 °F 60% 30.27 in 6.2 mi NE 12.7 mph - N/A   Scattered Clouds
3:00 PM 35.6 °F 27.1 °F 23.0 °F 60% 30.27 in 6.2 mi NE 12.7 mph - N/A Snow Light Snow
3:30 PM 35.6 °F 26.6 °F 23.0 °F 60% 30.27 in 6.2 mi NE 13.8 mph - N/A Snow Light Snow
4:00 PM 33.8 °F 24.8 °F 23.0 °F 65% 30.27 in 6.2 mi ENE 12.7 mph - N/A   Scattered Clouds
4:30 PM 33.8 °F 24.8 °F 23.0 °F 65% 30.30 in 6.2 mi ENE 12.7 mph - N/A   Scattered Clouds
5:00 PM 33.8 °F 25.8 °F 24.8 °F 70% 30.30 in 6.2 mi East 10.4 mph - N/A   Mostly Cloudy
5:30 PM 32.0 °F 22.5 °F 23.0 °F 69% 30.30 in 6.2 mi East 12.7 mph - N/A   Mostly Cloudy
6:00 PM 32.0 °F 24.2 °F 24.8 °F 75% 30.30 in 6.2 mi East 9.2 mph - N/A   Mostly Cloudy
6:30 PM 32.0 °F 24.2 °F 24.8 °F 75% 30.30 in 6.2 mi ESE 9.2 mph - N/A   Mostly Cloudy
7:00 PM 33 °F - 24 °F 59%  in 9 mi East 15.0 mph - - Snow Light Snow
7:00 PM 32.0 °F 22.1 °F 24.8 °F 75% 30.30 in 6.2 mi East 13.8 mph - N/A   Mostly Cloudy
8:00 PM 32.0 °F 24.2 °F 24.8 °F 75% 30.33 in 6.2 mi East 9.2 mph - N/A   Mostly Cloudy
9:00 PM 32.0 °F 23.0 °F 24.8 °F 75% 30.33 in 6.2 mi East 11.5 mph - N/A   Mostly Cloudy
10:00 PM 30.2 °F 22.6 °F 24.8 °F 80% 30.33 in 6.2 mi East 8.1 mph - N/A   Mostly Cloudy
11:00 PM 30.2 °F 23.4 °F 24.8 °F 80% 30.36 in 6.2 mi East 6.9 mph - N/A   Mostly Cloudy
11:30 PM 30.2 °F 23.4 °F 26.6 °F 86% 30.36 in 6.2 mi East 6.9 mph - N/A   Mostly Cloudy